Location: Aragüita
(10.0436°N, 67.8028°W)
Time: 14:46:04
(UTC+00:00)

USA 306 - Pass Details

Date: 14 April 2024
Orbit: 496 x 519 km, 54.0° (Epoch: 15 February)

Event Time Altitude Azimuth Distance (km) Brightness Sun altitude
Exits shadow 09:43:29 - 210° (SSW) 2,186 5.5 -9.9°
Reaches altitude 10° 09:44:44 10° 210° (SSW) 1,687 4.9 -9.6°
Maximum altitude 09:48:35 77° 125° (SE) 503 2.7 -8.7°
Drops below altitude 10° 09:52:19 10° 37° (NE) 1,626 6.0 -7.8°
Sets 09:54:24 0° 36° (NE) 2,461 7.0 -7.3°
